Regional Weather Roundup
Issued by NWS Goodland, KS

Home | Current Version | Previous Version | Graphics & Text | Print | Product List | Glossary On
Versions: 1 2 3 4 5 6 7 8 9 10 11 12 13 14 15 16 17 18 19 20 21 22 23 24 25 26 27 28 29 30 31 32 33 34 35 36 37 38 39 40 41 42 43 44 45 46 47 48 49 50
000
ASUS43 KGLD 292108
RWRGLD

GOODLAND FORECAST AREA HOURLY WEATHER ROUNDUP
NATIONAL WEATHER SERVICE GOODLAND KS
300 PM MDT SUN MAR 29 2015

...OFFICIAL OBSERVATIONS...

CITY           SKY/WX    TMP DP  RH WIND       PRES   REMARKS
GOODLAND KS    SUNNY     65  21  18 N22       30.19F
HILL CITY KS   SUNNY     68  23  18 NW15G32   30.15F
IMPERIAL NEB     N/A     64  22  20 N17       30.18F
MCCOOK NEB     SUNNY     66  19  16 N17G30    30.16F
AKRON CO       SUNNY     61  22  22 N15       30.21F
BURLINGTON CO  SUNNY     64  20  18 N17       30.21F
LIMON CO       SUNNY     58  21  24 N9        30.24F
$$

...UNOFFICIAL OBSERVATIONS...

CITY           SKY/WX    TMP DP  RH WIND       PRES   REMARKS
COLBY KS       SUNNY     64  30  27 NW13G22   30.18F
GOVE KS          N/A     66  32  28 MISG        N/A
LENORA KS        N/A     64  32  30 MISG        N/A
NORTON KS      SUNNY     66  10  11 NW18G26   30.13F
SHARON SPRINGS   N/A     66  25  21 N13G26      N/A
TRIBUNE KS     SUNNY     68  34  28 N21G26    30.21
KIT CARSON CO    N/A     63  25  23 MISG        N/A
YUMA CO          N/A     62  20  20 NW13G20     N/A
$$


USA.gov is the U.S. government's official web portal to all federal, state and local government web resources and services.